Location: Riverside Cemetery
(38.3047°N, 99.7773°W)
Time: 19:05:35
(UTC+00:00)

CZ-2C R/B - Pass Details

Date: 19 September 2020
Orbit: 669 x 783 km, 98.2° (Epoch: 21 October)

Event Time Altitude Azimuth Distance (km) Brightness Sun altitude
Rises 10:50:11 0° 10° (N) 3,235 6.1 -19.1°
Reaches altitude 10° 10:52:29 10° 8° (N) 2,318 5.3 -18.6°
Maximum altitude 10:57:35 71° 286° (WNW) 826 2.4 -17.7°
Enters shadow 11:02:25 12° 203° (SSW) 2,215 4.5 -16.8°
